EW1998 Weather Reports


time (UTC)temp
F
wind
direction
speed
knots
gust
knots
rain 1hr
in
rain 24hr
in
rain mn
in
humidity
%
barometer
mb
20260503021422 45 55 0.0 1.7 0.00 0.00 0.00 88 1009.2
20260503015902 45 37 0.0 3.5 0.00 0.00 0.00 89 1009.0
20260503014403 45 41 2.6 3.5 0.00 0.00 0.00 88 1009.0
20260503012901 44 156 0.0 0.9 0.00 0.00 0.00 90 1009.1
20260503012119 44 230 0.0 1.7 0.00 0.00 0.00 90 1009.1
20260503011612 44 230 0.0 1.7 0.00 0.00 0.00 90 1009.1
20260503005858 44 234 0.0 1.7 0.00 0.00 0.00 89 1008.9
20260503004347 44 10 0.0 1.7 0.00 0.00 0.00 91 1009.0
20260503002835 43 217 0.0 1.7 0.00 0.00 0.00 92 1008.8
20260503002103 43 214 0.0 2.6 0.00 0.00 0.00 92 1009.0
20260503001330 43 214 0.0 2.6 0.00 0.00 0.00 92 1009.0
20260502235803 44 333 0.9 2.6 0.00 0.00 0.00 88 1008.9
20260502234303 43 246 0.0 1.7 0.00 0.00 0.00 90 1008.7
20260502232754 43 142 0.0 2.6 0.00 0.00 0.00 91 1008.9
20260502231932 44 310 0.0 1.7 0.00 0.00 0.00 91 1009.0
20260502231231 44 310 0.0 1.7 0.00 0.00 0.00 91 1009.0
20260502230441 43 261 0.0 1.7 0.00 0.00 0.00 89 1009.1
20260502225729 43 261 0.0 1.7 0.00 0.00 0.00 89 1009.1
20260502224221 44 35 0.0 0.9 0.00 0.00 0.00 88 1009.1
20260502222705 45 22 0.0 1.7 0.00 0.00 0.00 86 1008.9
20260502221203 45 174 0.0 1.7 0.00 0.00 0.00 87 1008.8
20260502220402 46 251 0.0 1.7 0.00 0.00 0.00 85 1008.8
20260502215705 46 251 0.0 1.7 0.00 0.00 0.00 85 1008.8
20260502214202 45 228 0.0 1.7 0.00 0.00 0.00 86 1008.7
20260502213400 46 25 0.0 0.9 0.00 0.00 0.00 82 1008.6
20260502212702 46 25 0.0 0.9 0.00 0.00 0.00 82 1008.6
20260502211903 47 186 0.0 1.7 0.00 0.00 0.00 83 1008.8
20260502211201 47 186 0.0 1.7 0.00 0.00 0.00 83 1008.8
20260502211058 47 0 1.7 1.7 0.00 0.00 0.00 80 1008.8
20260502205704 47 0 1.7 1.7 0.00 0.00 0.00 80 1008.8
20260502204201 49 340 0.0 1.7 0.00 0.00 0.00 79 1008.8
20260502202629 49 207 0.9 1.7 0.00 0.00 0.00 78 1008.7
20260502201130 50 146 0.0 1.7 0.00 0.00 0.00 73 1008.9
20260502195629 52 39 0.0 1.7 0.00 0.00 0.00 70 1008.8
20260502195033 53 17 0.9 1.7 0.00 0.00 0.00 67 1008.7
20260502194824 53 17 0.9 1.7 0.00 0.00 0.00 67 1008.7
20260502192630 53 190 0.0 3.5 0.00 0.00 0.00 67 1008.7
20260502191103 55 22 0.9 1.7 0.00 0.00 0.00 62 1008.6
20260502190306 56 205 0.0 2.6 0.00 0.00 0.00 60 1008.5
20260502185819 56 205 0.0 2.6 0.00 0.00 0.00 60 1008.5
20260502184102 56 269 0.0 4.3 0.00 0.00 0.00 57 1008.6
20260502184004 56 228 2.6 4.3 0.00 0.00 0.00 56 1008.6
20260502183532 56 228 2.6 4.3 0.00 0.00 0.00 56 1008.6
20260502181754 56 239 0.0 5.2 0.00 0.00 0.00 55 1008.6
20260502181056 56 239 0.0 5.2 0.00 0.00 0.00 55 1008.6
20260502164002 58 264 3.5 4.3 0.00 0.00 0.00 51 1009.0
20260502163205 59 266 2.6 7.8 0.00 0.00 0.00 51 1009.0
20260502162714 59 266 2.6 7.8 0.00 0.00 0.00 51 1009.0
20260502161007 59 263 3.5 5.2 0.00 0.00 0.00 48 1009.2
20260502151000 60 264 3.5 7.8 0.00 0.00 0.00 43 1009.7
20260502150204 61 282 1.7 8.7 0.00 0.00 0.00 41 1009.4
20260502122353 64 256 1.7 7.0 0.00 0.00 0.00 35 1010.2
20260502121552 65 235 4.3 7.0 0.00 0.00 0.00 34 1010.4
20260502120843 65 235 4.3 7.0 0.00 0.00 0.00 34 1010.4
20260502115540 65 237 1.7 10.4 0.00 0.00 0.00 35 1010.3
20260502114533 65 256 3.5 9.6 0.00 0.00 0.00 34 1010.5
20260502114025 65 256 3.5 9.6 0.00 0.00 0.00 34 1010.5
20260502112305 65 254 5.2 8.7 0.00 0.00 0.00 34 1010.6
20260502111505 65 271 3.5 8.7 0.00 0.00 0.00 30 1010.6
20260502110804 65 271 3.5 8.7 0.00 0.00 0.00 30 1010.6
20260502105306 64 244 7.8 8.7 0.00 0.00 0.00 33 1010.5
20260502103754 65 243 2.6 8.7 0.00 0.00 0.00 33 1010.8
20260502102232 64 204 6.1 8.7 0.00 0.00 0.00 31 1011.0
20260502100732 66 234 2.6 8.7 0.00 0.00 0.00 32 1011.0
20260502091422 66 227 0.9 4.3 0.00 0.00 0.00 35 1011.0
20260502090730 66 227 0.9 4.3 0.00 0.00 0.00 35 1011.0
20260502070652 56 201 1.7 3.5 0.00 0.00 0.00 53 1012.6
20260502065840 55 113 0.0 2.6 0.00 0.00 0.00 57 1012.8
20260502065130 55 113 0.0 2.6 0.00 0.00 0.00 57 1012.8
20260502063626 54 115 0.9 3.5 0.00 0.00 0.00 58 1013.1
20260502062756 53 224 0.0 3.5 0.00 0.00 0.00 59 1013.3
20260502062315 53 224 0.0 3.5 0.00 0.00 0.00 59 1013.3
20260502060601 51 234 0.0 3.5 0.00 0.00 0.00 64 1013.4
20260502055101 50 141 2.6 3.5 0.00 0.00 0.00 65 1013.5
20260502053728 48 186 0.9 1.7 0.00 0.00 0.00 72 1013.6
20260502053603 49 358 0.0 1.7 0.00 0.00 0.00 66 1013.5
20260502053458 48 186 0.9 1.7 0.00 0.00 0.00 72 1013.6
20260502051959 44 135 0.0 1.7 0.00 0.00 0.00 82 1013.5
20260502050601 44 135 0.0 1.7 0.00 0.00 0.00 82 1013.5
20260502045804 42 199 0.0 0.9 0.00 0.00 0.00 83 1013.7
20260502045101 42 199 0.0 0.9 0.00 0.00 0.00 83 1013.7
20260502044306 41 293 0.0 1.7 0.00 0.00 0.00 85 1013.8
20260502043601 41 293 0.0 1.7 0.00 0.00 0.00 85 1013.8
20260502042051 40 330 0.0 1.7 0.00 0.00 0.00 85 1013.9
20260502040532 40 212 0.9 1.7 0.00 0.00 0.00 83 1014.0
20260502035030 40 69 0.0 1.7 0.00 0.00 0.00 83 1014.1
20260502034235 40 328 0.0 1.7 0.00 0.00 0.00 83 1014.2
20260502033740 40 328 0.0 1.7 0.00 0.00 0.00 83 1014.2
20260502032029 41 190 0.9 1.7 0.00 0.00 0.00 81 1014.3
20260502031243 41 231 0.0 1.7 0.00 0.00 0.00 80 1014.4
20260502030529 41 231 0.0 1.7 0.00 0.00 0.00 80 1014.4
20260502025729 41 337 0.0 0.9 0.00 0.00 0.00 84 1014.5
20260502025241 41 337 0.0 0.9 0.00 0.00 0.00 84 1014.5
20260502024214 42 124 0.0 1.7 0.00 0.00 0.00 76 1014.7
20260502023740 42 124 0.0 1.7 0.00 0.00 0.00 76 1014.7
20260502022002 43 135 0.0 2.6 0.00 0.00 0.00 76 1015.1